Tracking 20083 objects as of 12-Dec-2019
HD Live streaming from Space Station
objects crossing your sky now

COSMOS 2251 DEB

Track COSMOS 2251 DEB now!
10-day predictions


NORAD ID: 35468
Int'l Code: 1993-036ALN
Perigee: 456.3 km
Apogee: 476.1 km
Inclination: 74.0 °
Period: 93.8 minutes
Semi major axis: 6837 km
RCS: 0.0017 m2 (small)
Launch date: June 16, 1993
Source: Commonwealth of Independent States (former USSR) (CIS)
Launch site: PLESETSK MISSILE AND SPACE COMPLEX (PKMTR)

Note: This is SATELLITE DEBRIS
aabbcc
Your satellite tracking list
Your tracking list is empty




NASA's NSSDC Master Catalog

Two Line Element Set (TLE):
1 35468U 93036ALN 19344.63680549  .00026908  00000-0  77279-3 0  9999
2 35468  74.0311 110.3958 0014448  16.4513 343.7158 15.35623323574406
Source of the keplerian elements: AFSPC